Weather History for KCDJ - January, 2014

Change the Weather History Date:

Saturday, January 25, 2014

  Actual Average (KIRK) Record (KIRK)
Temperature  
Mean Temperature 36 °F 26 °F  
Max Temperature 48 °F 36 °F 62 °F (1934)
Min Temperature 24 °F 17 °F -15 °F (1940)
Degree Days  
Heating Degree Days 29 39  
Month to date heating degree days 975  
Since 1 July heating degree days 3318  
Cooling Degree Days 0 0  
Month to date cooling degree days 0  
Year to date cooling degree days 0  
Moisture  
Dew Point 14 °F    
Average Humidity 42    
Maximum Humidity 65    
Minimum Humidity 19    
Precipitation  
Precipitation 0.00 in 0.05 in 0.37 in (1950)
Month to date precipitation 0.90  
Year to date precipitation 0.90  
Sea Level Pressure  
Sea Level Pressure 29.92 in    
Wind  
Wind Speed 10 mph (WNW)    
Max Wind Speed 23 mph    
Max Gust Speed 43 mph    
T = Trace of Precipitation, MM = Missing Value Source: NWS Daily Summary

Daily Weather History Graph

Daily Weather History Graph

Search for Another Location

Airport or City:

Trip Planner

Search our weather history database for the weather conditions in past years. The results will help you decide how hot, cold, wet, or windy it might be!

Date:

Astronomy

Jan. 25, 2014 Rise Set
Actual Time 7:28 AM CST 5:25 PM CST
Civil Twilight 6:59 AM CST 5:54 PM CST
Nautical Twilight 6:26 AM CST 6:27 PM CST
Astronomical Twilight 5:54 AM CST 6:59 PM CST
Moon 2:01 AM CST 12:26 PM CST
Length of Visible Light 10h 55m
Length of Day
9h 57m
Waning Crescent, 34% of the Moon is Illuminated
Jan 25
Waning Crescent
Jan 30
New
Feb 6
First Quarter
Feb 14
Full
Feb 22
Last Quarter

Hourly Weather History & Observations

Time (CST) Temp. Windchill Dew Point Humidity Pressure Visibility Wind Dir Wind Speed Gust Speed Precip Events Conditions
12:52 AM 44.1 °F 41.5 °F 21.9 °F 42% 29.72 in - West 4.6 mph - N/A   Unknown
1:52 AM 48.0 °F - 28.0 °F 46% 29.72 in - WNW 11.5 mph 20.7 mph N/A   Unknown
2:52 AM 48.9 °F - 32.0 °F 52% 29.75 in - NW 17.3 mph 32.2 mph N/A   Unknown
3:52 AM 45.0 °F 36.4 °F 28.0 °F 52% 29.80 in - NW 23.0 mph 42.6 mph N/A   Unknown
4:52 AM 44.1 °F 37.4 °F 26.1 °F 49% 29.83 in - NW 13.8 mph 24.2 mph N/A   Unknown
5:52 AM 42.1 °F 34.5 °F 28.0 °F 58% 29.85 in - NW 15.0 mph 20.7 mph N/A   Unknown
6:52 AM 41.0 °F 36.4 °F 30.0 °F 65% 29.86 in - WNW 6.9 mph - N/A   Unknown
7:52 AM 41.0 °F 34.7 °F 30.0 °F 65% 29.89 in - WNW 10.4 mph 20.7 mph N/A   Unknown
8:52 AM 37.0 °F 29.3 °F 25.0 °F 62% 29.95 in - North 11.5 mph 24.2 mph N/A   Unknown
9:52 AM 37.0 °F 27.7 °F 18.0 °F 46% 29.99 in - NNW 16.1 mph 26.5 mph N/A   Unknown
10:52 AM 34.0 °F 26.0 °F 15.1 °F 46% 30.04 in - NNW 10.4 mph 20.7 mph N/A   Unknown
11:52 AM 33.1 °F 24.9 °F -4.0 °F 20% 30.05 in - NNW 10.4 mph 25.3 mph N/A   Unknown
12:52 PM 35.1 °F 26.4 °F 1.0 °F 24% 30.04 in - NW 12.7 mph 21.9 mph N/A   Unknown
1:52 PM 35.1 °F 25.5 °F 3.0 °F 26% 30.05 in - NNW 15.0 mph 23.0 mph N/A   Unknown
2:52 PM 36.0 °F 27.5 °F 5.0 °F 27% 30.03 in - NW 12.7 mph - N/A   Unknown
3:52 PM 37.0 °F 30.4 °F 6.1 °F 28% 30.02 in - WNW 9.2 mph - N/A   Unknown
4:52 PM 33.1 °F 24.9 °F -6.0 °F 19% 30.03 in - NW 10.4 mph 19.6 mph N/A   Unknown
5:52 PM 28.0 °F - -0.9 °F 29% 30.03 in - Calm Calm - N/A   Unknown
6:52 PM 24.1 °F - 7.0 °F 48% 30.01 in - Calm Calm - N/A   Unknown
7:52 PM 25.0 °F - 8.1 °F 49% 29.99 in - Calm Calm - N/A   Unknown
8:52 PM 25.0 °F 20.7 °F 5.0 °F 43% 29.94 in - South 3.5 mph - N/A   Unknown
9:52 PM 28.0 °F 20.0 °F 6.1 °F 39% 29.88 in - South 8.1 mph - N/A   Unknown
10:52 PM 27.0 °F 20.5 °F 6.1 °F 41% 29.83 in - SSE 5.8 mph - N/A   Unknown
11:52 PM 30.0 °F 21.7 °F 8.1 °F 40% 29.76 in - South 9.2 mph - N/A   Unknown